User: anonymous   Login
Location: Zagreb
(45.8000°N, 16.0000°E)
Time: 23:41:12
(UTC+01:00)
Language:

NO-84 - Orbit

View from above orbital plane
View from above orbital plane
View from above satellite
View from above satellite

Ground track
Ground track

The orbit data is extracted from the following two-line orbital elements,

1 40654U 15025D   20302.38566901  .00031194  00000-0  32056-3 0   827
2 40654  54.9854  46.5646 0107371 172.4515 187.8061 15.57671956189710
Epoch (UTC): 28 October 2020 09:15:21
Eccentricity: 0.0107371
inclination: 54.9854°
perigee height: 321 km
apogee height: 467 km
right ascension of ascending node: 46.5646°
argument of perigee: 172.4515°
revolutions per day: 15.57671956
mean anomaly at epoch: 187.8061°
orbit number at epoch: 18971

The dashed part of the orbit path shows where the satellite is in the earth's shadow,  

DLR